Flag for Germany Weather past 2 weeks in Leipzig, Saxony, Germany

Now
54 °F

Sunny.


Feels Like: 50 °F
Forecast: 36 / 49 °F
Wind: 12 mph from Southwest

Location: Leipzig-Schkeuditz


UV Index: 0 (Low)

Visibility: 10 mi


Pressure: 30.24 "Hg

Humidity: 38%

Dew point: 28 °F

Location of LeipzigLocation

Historic Weather in Leipzig

°F

Leipzig temperature yesterday

Maximum temperature yesterday: 52 °F (at 3:20 PM)
Minimum temperature yesterday: 36 °F (at 5:50 AM)
Average temperature yesterday: 43 °F

Past Weeks' High & Low Weather Summary

 TemperatureHumidityPressure
High72 °F (Apr 3, 1:50 PM)100% (Apr 4, 3:20 AM)30.45 "Hg (Apr 4, 3:20 AM)
Low34 °F (Apr 17, 5:20 AM)35% (Apr 2, 4:20 PM)29.65 "Hg (Apr 3, 5:20 AM)
Average51 °F74%30.00 "Hg
* Reported Apr 2 11:20 AM — Apr 17 11:50 AM, Leipzig, Weather by CustomWeather, © 2014

Note: Actual official high and low records may vary slightly from our data, if they occured in-between our weather recording intervals... More about our weather records

Advertising

Historic Weather Conditions — Data for Previous 24 hours

 ConditionsComfort  
Time TempWeatherWind HumidityBarometerVisibility
11:50 AM
Apr 17
54 °FSunny.10 mph35%30.27 "Hg10 mi
11:20 AM52 °FScattered clouds.12 mph50%30.30 "HgN/A
10:50 AM50 °FSunny.9 mph54%30.30 "Hg10 mi
10:20 AM48 °FSunny.8 mph62%30.33 "Hg10 mi
9:20 AM45 °FSunny.9 mph66%30.33 "Hg10 mi
8:50 AM41 °FSunny.9 mph81%30.33 "Hg10 mi
8:20 AM39 °FSunny.7 mph81%30.33 "Hg10 mi
7:50 AM37 °FSunny.8 mph87%30.33 "Hg10 mi
7:20 AM34 °FSunny.8 mph93%30.33 "Hg10 mi
6:50 AM34 °FClear.8 mph93%30.33 "Hg10 mi
6:20 AM34 °FClear.8 mph93%30.33 "Hg10 mi
5:50 AM34 °FClear.8 mph93%30.33 "Hg10 mi
5:20 AM34 °FClear.8 mph93%30.33 "Hg10 mi
4:50 AM36 °FClear.7 mph87%30.33 "Hg10 mi
4:20 AM37 °FClear.7 mph81%30.36 "Hg10 mi
3:50 AM36 °FClear.7 mph87%30.36 "Hg10 mi
3:20 AM36 °FClear.7 mph81%30.36 "Hg10 mi
2:50 AM37 °FClear.6 mph75%30.36 "Hg10 mi
2:20 AM37 °FClear.5 mph75%30.36 "Hg10 mi
1:50 AM37 °FClear.5 mph75%30.39 "Hg10 mi
1:20 AM37 °FClear.5 mph75%30.39 "Hg10 mi
12:50 AM39 °FClear.5 mph70%30.39 "Hg10 mi
12:20 AM37 °FClear.5 mph75%30.39 "Hg10 mi
11:50 PM
Apr 16
41 °FClear.3 mph66%30.39 "Hg10 mi
11:20 PM41 °FClear.1 mph66%30.39 "Hg10 mi
10:50 PM41 °FClear.2 mph66%30.39 "Hg10 mi
10:20 PM41 °FClear.1 mph66%30.39 "Hg10 mi
9:50 PM43 °FClear.1 mph61%30.39 "Hg10 mi
9:20 PM43 °FClear.1 mph61%30.39 "Hg10 mi
8:50 PM45 °FSunny.2 mph57%30.39 "Hg10 mi
8:20 PM46 °FSunny.2 mph53%30.39 "Hg10 mi
7:50 PM48 °FSunny.2 mph50%30.39 "Hg10 mi
7:20 PM50 °FSunny.2 mph54%30.39 "Hg10 mi
6:50 PM52 °FSunny.2 mph41%30.39 "Hg10 mi
6:20 PM50 °FSunny.2 mph50%30.39 "Hg10 mi
5:50 PM50 °FSunny.6 mph50%30.39 "Hg10 mi
5:20 PM52 °FSunny.2 mph44%30.39 "Hg10 mi
4:50 PM52 °FSunny.7 mph44%30.42 "Hg10 mi
4:20 PM52 °FSunny.6 mph47%30.42 "Hg10 mi
3:50 PM52 °FScattered clouds.5 mph47%30.42 "HgN/A
3:20 PM52 °FPassing clouds.5 mph44%30.42 "HgN/A
2:50 PM50 °FPassing clouds.8 mph58%30.42 "HgN/A
2:20 PM48 °FPassing clouds.7 mph58%30.42 "HgN/A
1:50 PM48 °FPassing clouds.6 mph54%30.45 "HgN/A
1:20 PM48 °FPassing clouds.6 mph71%30.45 "HgN/A
Weather by CustomWeather, © 2014

See weather overview